[[{"header":{"parameterUnit":"m.s-1","parameterCategory":2,"la1":30.2991,"la2":30.254,"lo1":-89.0895,"lo2":-89.0444,"dy":0.0017,"dx":0.0017,"nx":28,"ny":28,"refTime":"2024-07-06T09:00:00:Z","depth":"0","parameterNumber":2,"parameterNumberName":"U-component_of_CURRENTS"},"data":[0,0,0,0,0,0,0,0,0,0,0,0,0,0,0,0,0,0,0,0,0,0,0,0,0,0,0,0,0,0,0,0,0,0,0,0,0,0,0,0,0,0,0,0,0,0,0,0,0,0,0,0,0,0,0,0,0,0,0.3002,0.3002,0,0.2985,0.2985,0.2985,0.2958,0.2958,0.2957,0.2957,0.2959,0.296,0.296,0,0,0,0,0,0,0,0,0,0,0,0,0,0.3018,0.3018,0.3002,0.3002,0.3002,0.2985,0.2985,0.2985,0.2958,0.2958,0.2957,0.2957,0.2959,0.296,0.296,0,0,0,0,0,0,0,0,0,0,0,0,0,0.3006,0.3018,0.3002,0.2987,0.2986,0.2985,0.2985,0.2984,0.2958,0.2958,0.2957,0.2957,0.2959,0.296,0.296,0.2976,0,0,0.2962,0.2962,0,0,0,0,0,0,0,0,0.3007,0.3006,0.299,0.2989,0.2987,0.2974,0.2991,0.2983,0.2959,0.2968,0.2957,0.2956,0.2967,0.2967,0.2964,0.2976,0.2977,0.2962,0.2963,0.2963,0.2963,0,0,0,0,0,0,0,0.3008,0.3006,0.2995,0.299,0.2988,0.2984,0.2981,0.2989,0.2971,0.2967,0.2965,0.2965,0.2966,0.2963,0.2964,0.2977,0.2962,0.2963,0.2963,0.2963,0.308,0.3082,0,0,0,0,0,0,0.3012,0.3007,0.2995,0.2994,0.2997,0.2984,0.2981,0.2978,0.297,0.2969,0.2965,0.2964,0.2962,0.2963,0.2964,0.3044,0.2963,0.2964,0.2964,0.3077,0.308,0.3083,0,0,0,0,0,0,0.3012,0.3011,0.2996,0.3001,0.2999,0.2984,0.2981,0.2978,0.2982,0.2969,0.2967,0.2973,0.2962,0.2963,0.3008,0.3042,0.2964,0.2964,0.3074,0.3078,0.3082,0.3166,0,0,0,0,0,0,0.3013,0.3011,0.3016,0.3001,0.2999,0.3018,0.2982,0.2978,0.2982,0.298,0.2975,0.2974,0.2961,0.3007,0.3008,0.3041,0.2965,0.3071,0.3076,0.3081,0.316,0.3173,0.3184,0,0,0,0,0,0.3013,0.3022,0.3017,0.3016,0.3004,0.3019,0.3019,0.3005,0.2984,0.3002,0.301,0.2975,0.304,0.301,0.3011,0.3045,0.3068,0.3074,0.308,0.3155,0.317,0.3183,0,0,0,0,0,0,0.3021,0.302,0.3013,0.3018,0.3029,0.3015,0.3028,0.3014,0.3031,0.3028,0.3011,0.3013,0.3069,0.3051,0.3019,0.3097,0.3047,0.3054,0.3104,0.3118,0.313,0.3141,0.2965,0,0,0,0,0,0.3029,0.3037,0.3039,0.3042,0.3055,0.3043,0.3047,0.3039,0.3046,0.3051,0.3049,0.3059,0.3093,0.3101,0.3124,0.316,0.3189,0.3184,0.3196,0.3206,0.3219,0.3318,0.334,0.3103,0.3103,0.3103,0,0,0.3026,0.303,0.3031,0.3046,0.3051,0.308,0.3045,0.3059,0.3084,0.3051,0.3091,0.3105,0.3117,0.3171,0.3191,0.3157,0.3291,0.3214,0.3222,0.3229,0.3327,0.335,0.337,0.3107,0.3107,0.3106,0,0,0.3033,0.3041,0.3056,0.3079,0.3098,0.3106,0.3116,0.312,0.313,0.3168,0.3167,0.3213,0.3228,0.3264,0.3279,0.3371,0.3359,0.3363,0.3419,0.3515,0.3536,0.3554,0.3627,0.3651,0.3357,0.3358,0.3358,0,0.3038,0.3052,0.3064,0.3095,0.3122,0.3125,0.316,0.3178,0.3194,0.3223,0.3194,0.3278,0.3281,0.3375,0.3401,0.3398,0.3439,0.3359,0.3531,0.355,0.3567,0.3638,0.3663,0.3362,0.3362,0.3361,0.3361,0,0.3052,0.3081,0.3099,0.3145,0.3182,0.3213,0.325,0.329,0.3296,0.3306,0.3392,0.3412,0.3463,0.347,0.3456,0.358,0.3567,0.3544,0.3493,0.3596,0.3664,0.3689,0.3369,0.3367,0.3366,0.3365,0,0,0.3023,0.3097,0.3104,0.3148,0.3214,0.3247,0.3323,0.3393,0.3447,0.3468,0.3549,0.3601,0.3605,0.3625,0.3628,0.3692,0.3842,0.3662,0.3665,0.373,0.4051,0.3858,0.3866,0.3847,0.3852,0.3856,0.4052,0,0.3037,0.3106,0.3142,0.3226,0.3276,0.3336,0.3408,0.3474,0.3522,0.3604,0.3646,0.3715,0.3667,0.37,0.3767,0.3831,0.3911,0.3791,0.3945,0.3949,0.3762,0.389,0.3587,0.372,0.4076,0.408,0.4083,0,0.3039,0.3094,0.3171,0.3291,0.332,0.3373,0.3513,0.3575,0.3693,0.3729,0.3809,0.3837,0.3953,0.3887,0.4063,0.3987,0.4033,0.4066,0.4075,0.388,0.3802,0.3674,0.3751,0.362,0.4121,0.4118,0.4115,0,0.3018,0.3122,0.319,0.3226,0.3352,0.3414,0.3489,0.3608,0.3683,0.3818,0.3879,0.4002,0.4067,0.4167,0.4205,0.4164,0.4379,0.4337,0.4217,0.4204,0.3967,0.3923,0.3926,0.4483,0.4483,0.4482,0.4482,0,0.3024,0.3082,0.3186,0.3223,0.3331,0.3415,0.3539,0.3626,0.3759,0.3856,0.3937,0.403,0.4138,0.4246,0.4289,0.4318,0.4459,0.4258,0.4253,0.3985,0.3943,0.3829,0.3802,0.449,0.4488,0.4487,0.4485,0,0.2996,0.3056,0.3144,0.3272,0.332,0.3397,0.3563,0.3659,0.3764,0.3904,0.3952,0.4094,0.4214,0.4298,0.4457,0.4394,0.4312,0.4438,0.4093,0.4039,0.3734,0.3722,0.3655,0.3571,0.4351,0.4348,0.4345,0,0.2984,0.3023,0.3162,0.3233,0.3296,0.342,0.3521,0.3652,0.3748,0.3929,0.3999,0.4137,0.4214,0.4344,0.4264,0.4304,0.4222,0.4028,0.3877,0.3694,0.3684,0.3595,0.3526,0.3627,0.3619,0.3612,0.3606,0,0.297,0.3016,0.3098,0.3249,0.3358,0.3475,0.3612,0.3676,0.3827,0.3895,0.4001,0.4071,0.4122,0.3981,0.3969,0.3944,0.3763,0.388,0.3806,0.3209,0.3006,0.2925,0.3528,0.3544,0.355,0.3555,0.3558,0.3561,0.2966,0.302,0.3142,0.328,0.3404,0.352,0.3548,0.3653,0.3733,0.3745,0.3904,0.3854,0.3706,0.3611,0.3579,0.3211,0.336,0.3035,0.3076,0.3034,0.281,0.3247,0.3165,0.3169,0.3173,0.3176,0.3178,0,0.2968,0.3054,0.318,0.3321,0.3408,0.3492,0.36,0.3548,0.3526,0.355,0.354,0.3309,0.3106,0.297,0.2589,0.2417,0.2351,0.2342,0.2171,0.2179,0.2654,0.247,0.209,0.209,0.209,0.209,0.2091,0.2091,0.2984,0.3084,0.3147,0.3282,0.3361,0.3366,0.337,0.3276,0.3235,0.2984,0.2782,0.274,0.2566,0.2233,0.1908,0.1851,0.1767,0.1603,0.178,0.2097,0.2165,0.223,0.2049,0.1587,0.1587,0.1123,0.112,0.1117]},{"header":{"parameterUnit":"m.s-1","parameterCategory":2,"la1":30.2991,"la2":30.254,"lo1":-89.0895,"lo2":-89.0444,"dy":0.0017,"dx":0.0017,"nx":28,"ny":28,"refTime":"2024-07-06T09:00:00:Z","depth":"0","parameterNumber":3,"parameterNumberName":"V-component_of_CURRENTS"},"data":[0,0,0,0,0,0,0,0,0,0,0,0,0,0,0,0,0,0,0,0,0,0,0,0,0,0,0,0,0,0,0,0,0,0,0,0,0,0,0,0,0,0,0,0,0,0,0,0,0,0,0,0,0,0,0,0,0,0,-0.0215,-0.0215,0,-0.021,-0.021,-0.021,-0.0214,-0.0214,-0.0214,-0.0214,-0.0231,-0.0232,-0.0232,0,0,0,0,0,0,0,0,0,0,0,0,0,-0.0218,-0.0217,-0.0215,-0.0215,-0.0215,-0.021,-0.021,-0.021,-0.0214,-0.0214,-0.0214,-0.0215,-0.0231,-0.0232,-0.0232,0,0,0,0,0,0,0,0,0,0,0,0,0,-0.0215,-0.0217,-0.0215,-0.0217,-0.0217,-0.021,-0.021,-0.021,-0.0214,-0.0214,-0.0214,-0.0215,-0.0231,-0.0232,-0.0232,-0.0229,0,0,-0.0233,-0.0233,0,0,0,0,0,0,0,0,-0.0215,-0.0215,-0.0216,-0.0216,-0.0217,-0.0213,-0.0217,-0.0217,-0.0214,-0.0215,-0.0214,-0.0215,-0.0227,-0.0228,-0.0226,-0.023,-0.023,-0.0233,-0.0233,-0.0234,-0.0234,0,0,0,0,0,0,0,-0.0215,-0.0215,-0.0213,-0.0216,-0.0216,-0.0214,-0.0214,-0.0217,-0.022,-0.0215,-0.0215,-0.0215,-0.0227,-0.0225,-0.0226,-0.0231,-0.0233,-0.0234,-0.0234,-0.0234,-0.0235,-0.0234,0,0,0,0,0,0,-0.0216,-0.0215,-0.0213,-0.0213,-0.0217,-0.0214,-0.0214,-0.0214,-0.0219,-0.022,-0.0214,-0.0215,-0.0224,-0.0226,-0.0227,-0.0224,-0.0234,-0.0234,-0.0234,-0.0235,-0.0234,-0.0234,0,0,0,0,0,0,-0.0216,-0.0216,-0.0213,-0.0214,-0.0213,-0.0213,-0.0213,-0.0214,-0.0213,-0.0219,-0.022,-0.0214,-0.0225,-0.0226,-0.0229,-0.0225,-0.0234,-0.0235,-0.0235,-0.0235,-0.0234,-0.0218,0,0,0,0,0,0,-0.0217,-0.0216,-0.0217,-0.0214,-0.0213,-0.0208,-0.0213,-0.0213,-0.0212,-0.0213,-0.0219,-0.0221,-0.0225,-0.0229,-0.023,-0.0226,-0.0235,-0.0235,-0.0235,-0.0234,-0.0219,-0.0217,-0.0216,0,0,0,0,0,-0.0217,-0.0213,-0.0217,-0.0216,-0.0214,-0.0207,-0.0207,-0.0207,-0.0212,-0.0209,-0.0214,-0.022,-0.0227,-0.0229,-0.023,-0.0226,-0.0236,-0.0235,-0.0235,-0.022,-0.0218,-0.0216,0,0,0,0,0,0,-0.0212,-0.0213,-0.0217,-0.0213,-0.0211,-0.0208,-0.0204,-0.0207,-0.0208,-0.0209,-0.0218,-0.022,-0.022,-0.0225,-0.0228,-0.0225,-0.0232,-0.0232,-0.022,-0.0218,-0.0217,-0.0212,-0.0235,0,0,0,0,0,-0.0212,-0.0209,-0.021,-0.0206,-0.0206,-0.0206,-0.0204,-0.0204,-0.0204,-0.0205,-0.0209,-0.0214,-0.0218,-0.0221,-0.0223,-0.0222,-0.0197,-0.022,-0.0219,-0.0217,-0.0214,-0.0183,-0.0178,-0.0233,-0.0233,-0.0233,0,0,-0.0208,-0.0208,-0.0206,-0.0205,-0.0203,-0.0194,-0.0205,-0.0198,-0.0192,-0.0207,-0.02,-0.0208,-0.0217,-0.0215,-0.0216,-0.0219,-0.0181,-0.0217,-0.0215,-0.0213,-0.0182,-0.0176,-0.0172,-0.0232,-0.0232,-0.0232,0,0,-0.019,-0.0199,-0.0188,-0.0185,-0.0181,-0.0183,-0.0182,-0.0179,-0.0182,-0.0176,-0.0188,-0.0192,-0.0194,-0.0201,-0.0205,-0.0197,-0.0174,-0.0199,-0.0187,-0.0157,-0.0152,-0.0148,-0.0075,-0.0064,-0.0199,-0.0198,-0.0198,0,-0.0186,-0.0173,-0.0183,-0.0168,-0.0167,-0.0178,-0.0167,-0.0167,-0.0164,-0.017,-0.0169,-0.0177,-0.0185,-0.0191,-0.0189,-0.0193,-0.0157,-0.0194,-0.0154,-0.0149,-0.0145,-0.0072,-0.006,-0.0198,-0.0198,-0.0198,-0.0198,0,-0.0154,-0.0146,-0.0139,-0.0128,-0.013,-0.0121,-0.0128,-0.013,-0.0137,-0.0138,-0.0143,-0.0151,-0.0157,-0.0161,-0.0172,-0.0155,-0.0131,-0.0154,-0.0157,-0.0138,-0.0062,-0.005,-0.0196,-0.0197,-0.0197,-0.0197,0,0,-0.0137,-0.0121,-0.0117,-0.0112,-0.0111,-0.0109,-0.0109,-0.0116,-0.0115,-0.0115,-0.0108,-0.0124,-0.0132,-0.0137,-0.0152,-0.0132,-0.0062,-0.0129,-0.0128,-0.0051,0.0045,0.0036,0.0048,-0.0079,-0.0077,-0.0076,0.0099,0,-0.011,-0.0079,-0.0083,-0.0064,-0.0054,-0.0075,-0.0074,-0.0083,-0.009,-0.0082,-0.0099,-0.0089,-0.0122,-0.0115,-0.0106,-0.0071,-0.0035,-0.0104,0.0011,0.0016,0.0007,0.0059,0.0065,0.0218,0.0111,0.0113,0.0114,0,-0.0075,-0.0062,-0.0037,-0.004,-0.004,-0.0033,-0.0048,-0.0045,-0.005,-0.0052,-0.0057,-0.0058,-0.0034,-0.0061,0.0013,-0.0027,0.001,0.0038,0.0045,0.0034,0.0027,0.0174,0.0244,0.0163,0.0133,0.0131,0.013,0,-0.0054,-0.0035,-0.0019,-0.0015,-0.0014,-0.0019,-0.0024,-0.0036,-0.0023,-0.002,0.0013,0.0007,0.006,0.0072,0.0124,0.0079,0.0229,0.0174,0.0206,0.0208,0.0235,0.0235,0.0239,0.0231,0.023,0.023,0.0229,0,-0.0026,-0.0013,-0.0007,0.0007,0.0018,0.0004,0.0014,0.0007,0.0024,0.0081,0.0041,0.0115,0.0098,0.0173,0.0174,0.0252,0.0277,0.0231,0.0248,0.0243,0.0242,0.0187,0.0128,0.0236,0.0235,0.0234,0.0232,0,-0.0002,0.0005,0.0027,0.0032,0.0034,0.0042,0.0054,0.0072,0.0087,0.017,0.019,0.0241,0.0349,0.0344,0.0416,0.0358,0.0372,0.0418,0.0432,0.0445,0.0334,0.0276,0.0329,0.0306,0.047,0.047,0.0471,0,0.0016,0.0033,0.0053,0.0073,0.0078,0.0088,0.0104,0.0104,0.0151,0.0276,0.0347,0.0459,0.0584,0.0665,0.0587,0.0598,0.0492,0.0549,0.0427,0.0347,0.0297,0.0255,0.0229,0.0502,0.0503,0.0504,0.0504,0,0.0055,0.0062,0.0082,0.0126,0.0149,0.0173,0.0213,0.0264,0.0319,0.044,0.0642,0.0759,0.082,0.0839,0.0776,0.0733,0.0472,0.056,0.0476,0.032,0.0282,0.0262,0.0394,0.051,0.051,0.0509,0.0509,0.0509,0.0085,0.0113,0.015,0.0187,0.0222,0.029,0.0348,0.044,0.0584,0.0815,0.0886,0.1129,0.1027,0.0956,0.0845,0.0578,0.0573,0.0475,0.0424,0.0399,0.0321,0.0473,0.0585,0.0584,0.0584,0.0584,0.0584,0,0.0139,0.0171,0.0214,0.0278,0.0346,0.0343,0.0451,0.0554,0.0787,0.1023,0.1242,0.1363,0.1244,0.1026,0.0665,0.0472,0.0383,0.0361,0.0295,0.0281,0.0432,0.037,0.044,0.044,0.044,0.044,0.0441,0.0441,0.0173,0.0233,0.0258,0.0387,0.0442,0.0557,0.0639,0.0825,0.1013,0.1344,0.1536,0.1638,0.1447,0.0821,0.0418,0.0326,0.0183,0.0162,0.0104,0.0173,0.0179,0.0184,0.011,0.0125,0.0125,-0.0024,-0.0026,-0.0027]}],[{"header":{"parameterUnit":"m.s-1","parameterCategory":2,"la1":30.2991,"la2":30.254,"lo1":-89.0895,"lo2":-89.0444,"dy":0.0017,"dx":0.0017,"nx":28,"ny":28,"refTime":"2024-07-06T09:00:00:Z","depth":"2","parameterNumber":2,"parameterNumberName":"U-component_of_CURRENTS"},"data":[0,0,0,0,0,0,0,0,0,0,0,0,0,0,0,0,0,0,0,0,0,0,0,0,0,0,0,0,0,0,0,0,0,0,0,0,0,0,0,0,0,0,0,0,0,0,0,0,0,0,0,0,0,0,0,0,0,0,0.2011,0.2011,0,0.2001,0.2001,0.2001,0.1994,0.1994,0.1994,0.1994,0.2014,0.2015,0.2015,0,0,0,0,0,0,0,0,0,0,0,0,0,0.2011,0.2011,0.2011,0.2011,0.2011,0.2001,0.2001,0.2,0.1994,0.1994,0.1994,0.1994,0.2014,0.2015,0.2015,0,0,0,0,0,0,0,0,0,0,0,0,0,0.2005,0.2011,0.2011,0.2008,0.2007,0.2001,0.2001,0.2,0.1994,0.1994,0.1994,0.1994,0.2014,0.2015,0.2015,0.2016,0,0,0.2017,0.2018,0,0,0,0,0,0,0,0,0.2005,0.2005,0.2008,0.2008,0.2008,0.2,0.2008,0.2008,0.1994,0.1997,0.1994,0.1994,0.2013,0.2014,0.2009,0.2017,0.2018,0.2017,0.2018,0.2018,0.2018,0,0,0,0,0,0,0,0.2006,0.2005,0.2005,0.2008,0.2008,0.2002,0.2002,0.2008,0.2004,0.1997,0.1997,0.1998,0.2013,0.2008,0.201,0.2018,0.2017,0.2018,0.2018,0.2019,0.2131,0.2134,0,0,0,0,0,0,0.2011,0.2006,0.2006,0.2005,0.2009,0.2002,0.2002,0.2001,0.2003,0.2004,0.1998,0.1998,0.2007,0.2009,0.201,0.2074,0.2018,0.2019,0.2019,0.2129,0.2132,0.2135,0,0,0,0,0,0,0.2011,0.2011,0.2006,0.2007,0.2006,0.2003,0.2002,0.2001,0.2018,0.2004,0.2005,0.2019,0.2007,0.2009,0.2049,0.2073,0.2019,0.202,0.2126,0.213,0.2133,0.2162,0,0,0,0,0,0,0.2011,0.2011,0.2012,0.2007,0.2006,0.2028,0.2002,0.2001,0.2018,0.2018,0.2022,0.2022,0.2008,0.2048,0.2049,0.2073,0.202,0.2122,0.2128,0.2132,0.2158,0.2166,0.2174,0,0,0,0,0,0.2011,0.2014,0.2012,0.2012,0.2008,0.203,0.203,0.2026,0.2019,0.2039,0.2046,0.2023,0.208,0.205,0.2051,0.2075,0.212,0.2126,0.2132,0.2154,0.2165,0.2174,0,0,0,0,0,0,0.2023,0.2014,0.2012,0.2014,0.2034,0.203,0.2038,0.2042,0.206,0.2057,0.2049,0.2051,0.2094,0.2094,0.2061,0.2129,0.21,0.2106,0.2117,0.2127,0.2134,0.2145,0.2021,0,0,0,0,0,0.2024,0.2021,0.2028,0.2035,0.2043,0.2046,0.2053,0.2055,0.2067,0.2075,0.2084,0.2098,0.2116,0.2129,0.2143,0.2177,0.2201,0.22,0.2208,0.2214,0.2229,0.232,0.2337,0.2154,0.2154,0.2154,0,0,0.2028,0.2027,0.2023,0.2037,0.2043,0.2059,0.2051,0.207,0.2086,0.2075,0.2108,0.2125,0.2134,0.217,0.219,0.2173,0.2275,0.2222,0.2227,0.2238,0.2328,0.2345,0.2361,0.2158,0.2157,0.2157,0,0,0.2037,0.2038,0.2038,0.2057,0.2074,0.2078,0.2094,0.211,0.2122,0.2157,0.2156,0.2199,0.2221,0.2238,0.2245,0.2314,0.2315,0.2323,0.2366,0.2454,0.2469,0.2483,0.2508,0.2524,0.2326,0.2326,0.2326,0,0.2038,0.2044,0.2048,0.2064,0.2064,0.2093,0.2098,0.2125,0.2158,0.2178,0.2177,0.2244,0.2252,0.2299,0.2328,0.2329,0.2367,0.2317,0.2463,0.2477,0.2491,0.2513,0.2531,0.2328,0.2328,0.2327,0.2327,0,0.2054,0.2061,0.2071,0.2086,0.2092,0.2112,0.2134,0.2176,0.2193,0.2218,0.2281,0.2306,0.235,0.2364,0.2364,0.2464,0.2453,0.2459,0.243,0.2511,0.2529,0.2546,0.2331,0.233,0.2329,0.2329,0,0,0.2036,0.2069,0.2073,0.2086,0.2099,0.2118,0.2146,0.2187,0.223,0.2282,0.2337,0.2386,0.242,0.2436,0.2451,0.2531,0.2647,0.2546,0.255,0.2555,0.2815,0.2652,0.2654,0.269,0.2694,0.2698,0.2776,0,0.2044,0.2059,0.2071,0.2101,0.21,0.2134,0.2171,0.2215,0.2246,0.2326,0.2379,0.2448,0.244,0.248,0.2556,0.2643,0.2701,0.2623,0.275,0.2753,0.2587,0.2672,0.243,0.2468,0.2793,0.2796,0.2798,0,0.2042,0.2049,0.2051,0.2101,0.211,0.2156,0.2203,0.2261,0.2361,0.2373,0.2441,0.2491,0.261,0.26,0.2767,0.2726,0.2775,0.2827,0.2832,0.2685,0.2623,0.245,0.2487,0.2827,0.2825,0.2823,0.2821,0,0.2001,0.2042,0.2039,0.2052,0.211,0.2154,0.2231,0.2295,0.2355,0.2451,0.2494,0.2592,0.2689,0.2784,0.2864,0.2851,0.3036,0.3023,0.2902,0.2889,0.2708,0.2671,0.3137,0.3137,0.3137,0.3136,0.3136,0,0.1983,0.1998,0.2049,0.2067,0.2118,0.2176,0.2268,0.2327,0.2438,0.2499,0.2567,0.2604,0.2759,0.2857,0.2906,0.2946,0.3065,0.2925,0.2917,0.2705,0.2669,0.3005,0.2989,0.3139,0.3139,0.3138,0.3138,0,0.1935,0.196,0.1995,0.2074,0.2102,0.2174,0.2326,0.2384,0.2493,0.2574,0.2621,0.2706,0.2802,0.2893,0.304,0.2994,0.3048,0.3018,0.272,0.2673,0.2827,0.2812,0.2913,0.2908,0.2904,0.2901,0.2898,0,0.1917,0.1914,0.1996,0.2019,0.2074,0.2185,0.2235,0.2382,0.2429,0.2588,0.2611,0.275,0.274,0.2866,0.2842,0.2866,0.297,0.2623,0.2544,0.2831,0.2814,0.2805,0.2795,0.2314,0.2307,0.2301,0.2296,0,0.1882,0.1917,0.1943,0.1984,0.2047,0.2132,0.2247,0.2269,0.2416,0.2475,0.2535,0.2575,0.2638,0.2525,0.2537,0.2515,0.2598,0.2496,0.2936,0.2384,0.2267,0.2249,0.2261,0.2243,0.2248,0.2252,0.2255,0.2257,0.1867,0.1876,0.1912,0.1943,0.2013,0.2076,0.2089,0.2168,0.2242,0.2257,0.2363,0.2318,0.231,0.2191,0.2126,0.2086,0.2276,0.2166,0.2186,0.2213,0.2105,0.1985,0.1885,0.1888,0.1891,0.1893,0.1895,0,0.1816,0.1843,0.186,0.1887,0.1902,0.2,0.2057,0.2013,0.1996,0.2017,0.2035,0.1834,0.1739,0.1769,0.1612,0.1585,0.1598,0.1521,0.1526,0.1579,0.1626,0.149,0.1107,0.1105,0.1103,0.1101,0,0,0.18,0.1781,0.1768,0.1763,0.178,0.1787,0.1793,0.1724,0.1724,0.1612,0.1554,0.1627,0.1683,0.1373,0.1321,0.1189,0.138,0.1134,0.1764,0.1823,0.1867,0.1991,0.1839,0,0,0,0,0]},{"header":{"parameterUnit":"m.s-1","parameterCategory":2,"la1":30.2991,"la2":30.254,"lo1":-89.0895,"lo2":-89.0444,"dy":0.0017,"dx":0.0017,"nx":28,"ny":28,"refTime":"2024-07-06T09:00:00:Z","depth":"2","parameterNumber":3,"parameterNumberName":"V-component_of_CURRENTS"},"data":[0,0,0,0,0,0,0,0,0,0,0,0,0,0,0,0,0,0,0,0,0,0,0,0,0,0,0,0,0,0,0,0,0,0,0,0,0,0,0,0,0,0,0,0,0,0,0,0,0,0,0,0,0,0,0,0,0,0,0.0016,0.0016,0,0.0017,0.0017,0.0017,0.0008,0.0008,0.0008,0.0007,-0.0,-0.0,-0.0,0,0,0,0,0,0,0,0,0,0,0,0,0,0.0007,0.0007,0.0016,0.0016,0.0016,0.0017,0.0017,0.0017,0.0008,0.0008,0.0007,0.0007,-0.0,-0.0,-0.0,0,0,0,0,0,0,0,0,0,0,0,0,0,0.001,0.0007,0.0016,0.0011,0.0011,0.0017,0.0017,0.0017,0.0008,0.0008,0.0007,0.0007,-0.0,-0.0,-0.0,0.001,0,0,0.0,0.0,0,0,0,0,0,0,0,0,0.001,0.0011,0.0012,0.0012,0.0011,0.0011,0.0011,0.0014,0.0008,0.001,0.0007,0.0007,0.0003,0.0002,0.0005,0.0009,0.0009,0.0,0.0,0.0,0.0,0,0,0,0,0,0,0,0.001,0.0011,0.0017,0.0012,0.0011,0.0009,0.0009,0.0011,0.0009,0.001,0.0009,0.0008,0.0002,0.0005,0.0004,0.0009,0.0,0.0,0.0,0.0,0.0016,0.0016,0,0,0,0,0,0,0.0009,0.0011,0.0017,0.0017,0.0009,0.0009,0.0009,0.0012,0.0009,0.0008,0.0008,0.0008,0.0005,0.0004,0.0004,0.0021,0.0,0.0,0.0,0.0016,0.0016,0.0017,0,0,0,0,0,0,0.0009,0.001,0.0017,0.0013,0.0014,0.001,0.0013,0.0012,0.0011,0.0008,0.0007,0.0007,0.0004,0.0004,0.0008,0.0021,0.0,0.0001,0.0015,0.0016,0.0016,0.0052,0,0,0,0,0,0,0.0009,0.001,0.0013,0.0013,0.0014,0.0024,0.0014,0.0013,0.0011,0.001,0.0007,0.0006,0.0004,0.0008,0.0009,0.0021,0.0001,0.0015,0.0016,0.0016,0.0051,0.0054,0.0057,0,0,0,0,0,0.0009,0.0019,0.0013,0.0013,0.0017,0.0024,0.0024,0.002,0.0011,0.0016,0.0013,0.0006,0.0012,0.0009,0.0009,0.0021,0.0015,0.0015,0.0016,0.0049,0.0053,0.0057,0,0,0,0,0,0,0.0015,0.0019,0.0012,0.0022,0.0022,0.0022,0.0029,0.002,0.0022,0.002,0.0012,0.0012,0.0021,0.0014,0.001,0.0027,0.0012,0.0012,0.0037,0.004,0.0043,0.0061,0.0001,0,0,0,0,0,0.0017,0.0028,0.0025,0.0032,0.0035,0.0029,0.0031,0.0026,0.0026,0.0026,0.0024,0.0021,0.0025,0.0027,0.0028,0.0038,0.0043,0.0045,0.0048,0.0051,0.0064,0.0085,0.0092,0.0019,0.0019,0.0019,0,0,0.002,0.0025,0.0029,0.0035,0.0036,0.0049,0.003,0.0035,0.0045,0.0025,0.0041,0.0033,0.003,0.0043,0.0045,0.0038,0.0071,0.0052,0.0054,0.0066,0.0087,0.0094,0.01,0.002,0.002,0.002,0,0,0.0041,0.0038,0.0056,0.0061,0.0064,0.0062,0.0062,0.0062,0.0061,0.0071,0.006,0.0061,0.0065,0.0068,0.007,0.009,0.0086,0.0084,0.0116,0.0136,0.0143,0.0149,0.0156,0.0162,0.0086,0.0086,0.0086,0,0.0045,0.0067,0.006,0.0081,0.0094,0.0069,0.0093,0.009,0.0089,0.0101,0.0081,0.0097,0.0082,0.011,0.0109,0.0099,0.0106,0.0103,0.0142,0.0148,0.0153,0.0159,0.0166,0.0088,0.0088,0.0088,0.0088,0,0.008,0.0098,0.0111,0.0131,0.0142,0.0156,0.0154,0.0157,0.0149,0.015,0.017,0.0152,0.0169,0.0153,0.0134,0.0165,0.0155,0.0144,0.0136,0.0163,0.0167,0.0173,0.0091,0.009,0.009,0.0089,0,0,0.0094,0.0129,0.0134,0.0157,0.0171,0.0185,0.0204,0.0224,0.0262,0.0234,0.0283,0.0255,0.0246,0.0247,0.0224,0.0224,0.0249,0.0199,0.0199,0.0212,0.0289,0.0243,0.0245,0.0247,0.0248,0.0249,0.0274,0,0.0125,0.0178,0.0185,0.0234,0.0265,0.026,0.0292,0.0304,0.032,0.036,0.0326,0.0364,0.0283,0.0306,0.0287,0.0274,0.0268,0.0243,0.0256,0.0257,0.0217,0.0252,0.0254,0.0273,0.028,0.0281,0.0282,0,0.016,0.0195,0.0252,0.0307,0.0321,0.034,0.0404,0.0427,0.0465,0.049,0.0502,0.0494,0.0489,0.0424,0.0395,0.0385,0.0338,0.0309,0.0309,0.0262,0.0222,0.0248,0.0284,0.0292,0.0291,0.029,0.0289,0,0.0186,0.0242,0.0292,0.0309,0.0364,0.0387,0.0407,0.0461,0.0524,0.0579,0.0648,0.0625,0.0641,0.0582,0.0486,0.0461,0.0453,0.0419,0.0329,0.0325,0.0328,0.0321,0.0403,0.0403,0.0403,0.0403,0.0403,0,0.0223,0.0264,0.0305,0.0332,0.0409,0.0422,0.0514,0.0547,0.0633,0.0735,0.0712,0.079,0.0682,0.0655,0.0551,0.0456,0.0503,0.0348,0.0336,0.0337,0.0331,0.0347,0.034,0.0404,0.0403,0.0403,0.0403,0,0.0253,0.0276,0.034,0.0397,0.0424,0.0472,0.0579,0.067,0.0729,0.0867,0.0898,0.0926,0.0888,0.0767,0.0681,0.0554,0.0468,0.0416,0.041,0.0396,0.0311,0.0306,0.0346,0.0345,0.0344,0.0343,0.0342,0,0.0272,0.0308,0.0388,0.0447,0.0474,0.0553,0.0642,0.0715,0.0828,0.0955,0.104,0.1038,0.1047,0.0884,0.0682,0.0509,0.0472,0.0383,0.0325,0.0325,0.0309,0.0305,0.0302,0.0345,0.0344,0.0343,0.0343,0,0.0319,0.0342,0.0401,0.052,0.0608,0.0723,0.0834,0.0939,0.1045,0.1148,0.126,0.1266,0.1105,0.0919,0.0657,0.0531,0.0409,0.0365,0.0405,0.0343,0.0322,0.0306,0.0303,0.0338,0.0339,0.0339,0.0339,0.0339,0.0357,0.0412,0.0494,0.0609,0.0728,0.0879,0.0973,0.1099,0.1248,0.1368,0.1377,0.1346,0.1153,0.0793,0.0595,0.0367,0.0382,0.0287,0.029,0.0294,0.0274,0.025,0.0249,0.0249,0.0249,0.0249,0.0249,0,0.0415,0.0482,0.059,0.0735,0.0875,0.092,0.1114,0.12,0.135,0.14,0.1441,0.1227,0.1027,0.0795,0.0458,0.0271,0.026,0.0203,0.0236,0.0242,0.0247,0.0226,0.0188,0.0187,0.0187,0.0186,0,0,0.0454,0.0558,0.0614,0.0833,0.0946,0.1121,0.1224,0.1329,0.1382,0.1401,0.1345,0.1297,0.1048,0.0789,0.0554,0.0365,0.034,0.0322,0.0391,0.0463,0.0471,0.0315,0.0291,0,0,0,0,0]}],[{"header":{"parameterUnit":"m.s-1","parameterCategory":2,"la1":30.2991,"la2":30.254,"lo1":-89.0895,"lo2":-89.0444,"dy":0.0017,"dx":0.0017,"nx":28,"ny":28,"refTime":"2024-07-06T09:00:00:Z","depth":"4","parameterNumber":2,"parameterNumberName":"U-component_of_CURRENTS"},"data":[0,0,0,0,0,0,0,0,0,0,0,0,0,0,0,0,0,0,0,0,0,0,0,0,0,0,0,0,0,0,0,0,0,0,0,0,0,0,0,0,0,0,0,0,0,0,0,0,0,0,0,0,0,0,0,0,0,0,0.1019,0.1019,0,0.1049,0.1049,0.1049,0.1087,0.1088,0.1089,0.1089,0.1112,0.1112,0.1112,0,0,0,0,0,0,0,0,0,0,0,0,0,0.1016,0.1015,0.1019,0.1019,0.102,0.1049,0.1049,0.1049,0.1087,0.1088,0.1089,0.109,0.1112,0.1112,0.1112,0,0,0,0,0,0,0,0,0,0,0,0,0,0.1026,0.1015,0.1019,0.1045,0.1047,0.1049,0.1049,0.105,0.1086,0.1088,0.1089,0.109,0.1113,0.1112,0.1112,0.1083,0,0,0.1111,0.1111,0,0,0,0,0,0,0,0,0.1025,0.1025,0.104,0.1043,0.1046,0.1068,0.1057,0.1062,0.1086,0.1068,0.1089,0.1091,0.1098,0.1099,0.1097,0.1084,0.1085,0.1111,0.1111,0.1111,0.1111,0,0,0,0,0,0,0,0.1024,0.1024,0.1028,0.1041,0.1044,0.1063,0.1065,0.1058,0.1073,0.107,0.1073,0.1082,0.1099,0.1098,0.1098,0.1086,0.1111,0.1111,0.111,0.111,0.118,0.1182,0,0,0,0,0,0,0.1024,0.1023,0.1027,0.1029,0.1042,0.1062,0.1064,0.1057,0.1073,0.1078,0.108,0.1083,0.1097,0.1099,0.1099,0.1146,0.1111,0.111,0.111,0.1178,0.118,0.1182,0,0,0,0,0,0,0.1024,0.1023,0.1025,0.1031,0.1033,0.1061,0.1052,0.1057,0.1086,0.1082,0.1086,0.1109,0.1099,0.11,0.1117,0.1144,0.111,0.111,0.1175,0.1178,0.1181,0.1187,0,0,0,0,0,0,0.1023,0.1022,0.1028,0.103,0.1032,0.1041,0.1052,0.1057,0.1089,0.1094,0.1106,0.1108,0.11,0.1117,0.1116,0.1143,0.111,0.1173,0.1177,0.118,0.1185,0.119,0.1195,0,0,0,0,0,0.1022,0.1023,0.1028,0.1029,0.1035,0.1041,0.1044,0.1067,0.1089,0.1099,0.1113,0.1109,0.1142,0.1117,0.1116,0.1143,0.1171,0.1176,0.118,0.1182,0.1189,0.1195,0,0,0,0,0,0,0.1029,0.1027,0.1032,0.1034,0.1044,0.105,0.1069,0.1082,0.11,0.1115,0.1114,0.1115,0.114,0.1148,0.1121,0.1182,0.1165,0.1169,0.1167,0.1174,0.1179,0.1188,0.1109,0,0,0,0,0,0.103,0.1031,0.1033,0.1039,0.1047,0.1063,0.1075,0.1088,0.1101,0.1112,0.1123,0.1145,0.1152,0.1169,0.1171,0.1195,0.1214,0.1223,0.1229,0.1233,0.1244,0.1281,0.129,0.1197,0.1197,0.1197,0,0,0.1037,0.1037,0.1039,0.1041,0.1055,0.1063,0.1074,0.1098,0.1111,0.1109,0.1142,0.115,0.1161,0.1184,0.12,0.1199,0.1274,0.1238,0.1241,0.1251,0.1287,0.1296,0.1304,0.12,0.12,0.1199,0,0,0.1042,0.105,0.105,0.1059,0.108,0.1085,0.1098,0.1116,0.1136,0.1161,0.1164,0.1195,0.1218,0.1226,0.1234,0.1276,0.1288,0.1293,0.1334,0.137,0.1377,0.1384,0.143,0.144,0.1309,0.1309,0.1309,0,0.1055,0.1044,0.1055,0.106,0.1066,0.1098,0.1098,0.1121,0.1146,0.116,0.1183,0.1231,0.1239,0.1261,0.1287,0.1285,0.1314,0.1299,0.1374,0.1381,0.1387,0.1433,0.1444,0.131,0.131,0.131,0.131,0,0.1049,0.1053,0.1061,0.1068,0.1076,0.1089,0.111,0.1137,0.1175,0.1197,0.1243,0.1264,0.1302,0.1315,0.1316,0.137,0.1378,0.1359,0.1348,0.1396,0.1442,0.1454,0.1311,0.1311,0.131,0.131,0,0,0.1043,0.1051,0.1058,0.1048,0.1079,0.1073,0.1111,0.1133,0.1165,0.122,0.1265,0.1303,0.1342,0.1356,0.1368,0.1412,0.1487,0.1421,0.1423,0.1451,0.1584,0.1445,0.1445,0.148,0.1482,0.1484,0.16,0,0.1037,0.103,0.1039,0.1035,0.1028,0.1061,0.1086,0.1118,0.1172,0.123,0.1286,0.1338,0.135,0.1388,0.1431,0.1463,0.1518,0.1458,0.1548,0.1551,0.1407,0.1453,0.149,0.1608,0.1611,0.1613,0.1614,0,0.102,0.1014,0.1006,0.0997,0.0999,0.1013,0.1048,0.1076,0.1169,0.1222,0.1302,0.1356,0.1439,0.1449,0.155,0.1514,0.1565,0.1594,0.1598,0.1474,0.1433,0.1551,0.1636,0.1634,0.1632,0.1631,0.163,0,0.0983,0.0982,0.0967,0.0969,0.0981,0.0991,0.1013,0.1084,0.1113,0.1241,0.1311,0.1393,0.1477,0.1535,0.1617,0.1597,0.1725,0.1697,0.1623,0.1615,0.1701,0.1693,0.1782,0.1782,0.1782,0.1782,0.1781,0,0.095,0.0937,0.0953,0.0948,0.0938,0.0963,0.0981,0.104,0.1129,0.119,0.1318,0.1391,0.151,0.1597,0.1641,0.1666,0.175,0.1641,0.1633,0.1705,0.1695,0.171,0.17,0.1786,0.1785,0.1784,0.1783,0,0.0898,0.0918,0.0897,0.0914,0.0923,0.0921,0.0954,0.0979,0.1095,0.1193,0.1249,0.1414,0.1531,0.1626,0.1735,0.1694,0.1727,0.1722,0.1817,0.1811,0.1594,0.1583,0.1641,0.1637,0.1634,0.1631,0.1628,0,0.0866,0.0855,0.0871,0.086,0.087,0.0871,0.0887,0.0968,0.1015,0.1191,0.1252,0.1411,0.1515,0.1572,0.1654,0.1717,0.1703,0.1707,0.1626,0.1591,0.1579,0.1574,0.1568,0.1623,0.1622,0.1621,0.162,0,0.0804,0.0827,0.0816,0.0809,0.0817,0.0782,0.0827,0.0854,0.0979,0.1104,0.1229,0.1302,0.1434,0.1505,0.1575,0.1608,0.168,0.1671,0.1677,0.1602,0.157,0.156,0.1558,0.1608,0.161,0.1611,0.1612,0,0.0772,0.0752,0.0764,0.0737,0.0739,0.0704,0.0717,0.078,0.0837,0.107,0.1099,0.1283,0.1421,0.1451,0.1502,0.1527,0.1502,0.144,0.1458,0.1472,0.1356,0.1288,0.1241,0,0,0,0,0,0.0733,0.0708,0.068,0.0647,0.064,0.0641,0.0687,0.0717,0.0878,0.0943,0.1015,0.1136,0.1228,0.1303,0.1299,0.1404,0.1489,0.1387,0.142,0.1543,0.1557,0.1433,0,0,0,0,0,0,0.0708,0.0697,0.0668,0.0586,0.0548,0.0531,0.0558,0.0645,0.0685,0.0863,0.093,0.1054,0.1168,0.1241,0.1282,0.1302,0.1291,0.1488,0.1484,0.1536,0.1548,0.1559,0.1436,0,0,0,0,0]},{"header":{"parameterUnit":"m.s-1","parameterCategory":2,"la1":30.2991,"la2":30.254,"lo1":-89.0895,"lo2":-89.0444,"dy":0.0017,"dx":0.0017,"nx":28,"ny":28,"refTime":"2024-07-06T09:00:00:Z","depth":"4","parameterNumber":3,"parameterNumberName":"V-component_of_CURRENTS"},"data":[0,0,0,0,0,0,0,0,0,0,0,0,0,0,0,0,0,0,0,0,0,0,0,0,0,0,0,0,0,0,0,0,0,0,0,0,0,0,0,0,0,0,0,0,0,0,0,0,0,0,0,0,0,0,0,0,0,0,0.0102,0.0102,0,0.0103,0.0103,0.0103,0.0099,0.0098,0.0098,0.0098,0.011,0.011,0.0111,0,0,0,0,0,0,0,0,0,0,0,0,0,0.0084,0.0084,0.0102,0.0102,0.0102,0.0103,0.0103,0.0103,0.0099,0.0098,0.0098,0.0098,0.011,0.011,0.0111,0,0,0,0,0,0,0,0,0,0,0,0,0,0.009,0.0084,0.0102,0.0099,0.0099,0.0103,0.0103,0.0103,0.0099,0.0098,0.0098,0.0098,0.011,0.011,0.0111,0.0123,0,0,0.0114,0.0114,0,0,0,0,0,0,0,0,0.009,0.0091,0.01,0.0099,0.0099,0.0099,0.0101,0.011,0.0099,0.01,0.0098,0.0098,0.0107,0.0108,0.011,0.0124,0.0124,0.0114,0.0114,0.0115,0.0115,0,0,0,0,0,0,0,0.0089,0.0091,0.0104,0.01,0.0099,0.0093,0.0093,0.0102,0.0107,0.01,0.0099,0.0097,0.0107,0.011,0.0111,0.0125,0.0114,0.0114,0.0115,0.0115,0.0157,0.0158,0,0,0,0,0,0,0.0088,0.0091,0.0104,0.0104,0.0092,0.0093,0.0094,0.0101,0.0106,0.0106,0.0098,0.0097,0.0108,0.011,0.0111,0.0144,0.0115,0.0115,0.0116,0.0157,0.0157,0.0158,0,0,0,0,0,0,0.0088,0.0089,0.0104,0.0095,0.0097,0.0094,0.0101,0.0101,0.0102,0.0104,0.0105,0.0099,0.0108,0.011,0.0124,0.0143,0.0116,0.0116,0.0156,0.0157,0.0158,0.0197,0,0,0,0,0,0,0.0087,0.009,0.0095,0.0096,0.0097,0.0112,0.0101,0.0101,0.0101,0.01,0.0106,0.0107,0.0108,0.0123,0.0125,0.0144,0.0117,0.0155,0.0156,0.0157,0.0195,0.0199,0.0203,0,0,0,0,0,0.0087,0.0097,0.0095,0.0096,0.0104,0.0113,0.0113,0.011,0.0101,0.0109,0.0112,0.0106,0.0132,0.0125,0.0127,0.0146,0.0154,0.0156,0.0157,0.0193,0.0199,0.0203,0,0,0,0,0,0,0.0091,0.0098,0.0095,0.0107,0.0111,0.0111,0.0117,0.0111,0.0119,0.0117,0.0116,0.0118,0.0137,0.0134,0.0126,0.0161,0.0142,0.0144,0.0169,0.0174,0.0177,0.0187,0.0118,0,0,0,0,0,0.0094,0.0105,0.0107,0.0117,0.012,0.0117,0.0119,0.0118,0.0122,0.0124,0.0129,0.0134,0.0145,0.0153,0.0161,0.0181,0.0161,0.0194,0.0198,0.0201,0.021,0.0188,0.0191,0.0163,0.0163,0.0163,0,0,0.0096,0.0102,0.0108,0.0119,0.0121,0.0137,0.0119,0.0125,0.0141,0.0125,0.015,0.0148,0.0153,0.0176,0.0185,0.0177,0.0198,0.0203,0.0206,0.0213,0.019,0.0192,0.0195,0.0164,0.0163,0.0163,0,0,0.0112,0.0115,0.0131,0.0139,0.0145,0.0148,0.015,0.0155,0.016,0.0177,0.0173,0.0183,0.0197,0.021,0.0216,0.0246,0.0217,0.0245,0.0278,0.0256,0.0258,0.026,0.0233,0.0232,0.0249,0.025,0.025,0,0.0114,0.0139,0.0136,0.0155,0.0169,0.0156,0.0179,0.0184,0.0193,0.0208,0.0189,0.0215,0.0216,0.0251,0.0261,0.0257,0.0233,0.026,0.0261,0.0262,0.0263,0.0235,0.0234,0.0252,0.0251,0.0251,0.0251,0,0.0143,0.0165,0.0176,0.0201,0.0213,0.0231,0.0238,0.0253,0.0251,0.0255,0.028,0.0274,0.0293,0.0292,0.0286,0.0304,0.028,0.0265,0.0248,0.0268,0.0238,0.0235,0.0255,0.0254,0.0253,0.0253,0,0,0.0148,0.0189,0.0194,0.0224,0.0242,0.0262,0.0288,0.0318,0.0344,0.0338,0.0367,0.0377,0.0365,0.0371,0.0361,0.0344,0.0326,0.031,0.0308,0.0283,0.0269,0.0249,0.0243,0.0304,0.0304,0.0304,0.0243,0,0.0175,0.0225,0.0238,0.0295,0.0326,0.0336,0.037,0.0392,0.0397,0.042,0.0407,0.0427,0.0397,0.0406,0.0384,0.0343,0.0322,0.0344,0.0255,0.0253,0.0231,0.0241,0.0304,0.0241,0.024,0.024,0.024,0,0.0202,0.0237,0.0293,0.0363,0.0378,0.0411,0.0469,0.0499,0.0519,0.0518,0.0521,0.0502,0.0495,0.0454,0.0389,0.04,0.0343,0.0299,0.0295,0.0262,0.0227,0.0218,0.0235,0.0235,0.0235,0.0236,0.0236,0,0.0218,0.0283,0.0334,0.0355,0.0419,0.046,0.0501,0.0535,0.0569,0.0584,0.0594,0.0568,0.0558,0.0485,0.0394,0.0389,0.0299,0.0282,0.021,0.0208,0.0226,0.0225,0.0233,0.0233,0.0233,0.0233,0.0233,0,0.0247,0.0294,0.0352,0.0385,0.0466,0.0499,0.0575,0.0608,0.0642,0.0682,0.0652,0.0655,0.0561,0.0498,0.0408,0.0299,0.0309,0.022,0.0194,0.0243,0.0245,0.0224,0.0223,0.0231,0.0231,0.0232,0.0232,0,0.0263,0.0293,0.0365,0.0443,0.0477,0.0539,0.0632,0.0682,0.0706,0.0752,0.0759,0.0717,0.0633,0.053,0.0404,0.0324,0.022,0.0179,0.0238,0.0216,0.0138,0.0141,0.0099,0.0097,0.0096,0.0096,0.0095,0,0.0276,0.031,0.0406,0.0452,0.0496,0.0585,0.0651,0.0711,0.0756,0.0785,0.0805,0.0745,0.0698,0.0508,0.0389,0.0219,0.0192,0.0136,0.0142,0.0147,0.0126,0.013,0.0134,0.0093,0.0093,0.0093,0.0092,0,0.0305,0.0333,0.0389,0.0482,0.0562,0.0653,0.0746,0.0778,0.084,0.0856,0.0836,0.0748,0.065,0.0501,0.0369,0.0246,0.0172,0.0125,0.0126,0.0132,0.014,0.0121,0.0126,0.0089,0.009,0.009,0.009,0,0.0323,0.036,0.0425,0.0512,0.0608,0.07,0.0749,0.0804,0.0851,0.0876,0.0858,0.076,0.07,0.0514,0.039,0.0269,0.0237,0.0193,0.019,0.0193,0.0235,0.0261,0.023,0,0,0,0,0,0.0338,0.0379,0.0453,0.055,0.0643,0.0707,0.0804,0.0841,0.0888,0.088,0.0871,0.0779,0.06,0.0521,0.0397,0.0366,0.0214,0.0214,0.0161,0.007,0.0074,0.0106,0,0,0,0,0,0,0.0349,0.0411,0.0448,0.0563,0.0634,0.075,0.0817,0.0853,0.0844,0.0859,0.0765,0.0732,0.0557,0.0666,0.0387,0.0353,0.0298,0.0137,0.0134,0.0068,0.0071,0.0075,0.0109,0,0,0,0,0]}]]